Index of /20260429/WXO-DD/model_rdps/10km/00/003
Name Last modified Size Description
Parent Directory -
20260429T00Z_MSC_RDPS_AbsoluteVorticity_IsbL-0250_RLatLon0.09_PT003H.grib2 2026-04-29 02:40 627K
20260429T00Z_MSC_RDPS_AbsoluteVorticity_IsbL-0500_RLatLon0.09_PT003H.grib2 2026-04-29 02:40 566K
20260429T00Z_MSC_RDPS_AbsoluteVorticity_IsbL-0700_RLatLon0.09_PT003H.grib2 2026-04-29 02:40 612K
20260429T00Z_MSC_RDPS_AbsoluteVorticity_IsbL-0850_RLatLon0.09_PT003H.grib2 2026-04-29 02:40 762K
20260429T00Z_MSC_RDPS_AirTemp_AGL-120m_RLatLon0.09_PT003H.grib2 2026-04-29 02:40 378K
20260429T00Z_MSC_RDPS_AirTemp_AGL-2m_RLatLon0.09_PT003H.grib2 2026-04-29 02:40 609K
20260429T00Z_MSC_RDPS_AirTemp_AGL-40m_RLatLon0.09_PT003H.grib2 2026-04-29 02:40 389K
20260429T00Z_MSC_RDPS_AirTemp_AGL-80m_RLatLon0.09_PT003H.grib2 2026-04-29 02:40 382K
20260429T00Z_MSC_RDPS_AirTemp_IsbL-0001_RLatLon0.09_PT003H.grib2 2026-04-29 02:40 252K
20260429T00Z_MSC_RDPS_AirTemp_IsbL-0005_RLatLon0.09_PT003H.grib2 2026-04-29 02:40 284K
20260429T00Z_MSC_RDPS_AirTemp_IsbL-0010_RLatLon0.09_PT003H.grib2 2026-04-29 02:40 292K
20260429T00Z_MSC_RDPS_AirTemp_IsbL-0020_RLatLon0.09_PT003H.grib2 2026-04-29 02:40 303K
20260429T00Z_MSC_RDPS_AirTemp_IsbL-0030_RLatLon0.09_PT003H.grib2 2026-04-29 02:40 322K
20260429T00Z_MSC_RDPS_AirTemp_IsbL-0050_RLatLon0.09_PT003H.grib2 2026-04-29 02:40 302K
20260429T00Z_MSC_RDPS_AirTemp_IsbL-0100_RLatLon0.09_PT003H.grib2 2026-04-29 02:40 417K
20260429T00Z_MSC_RDPS_AirTemp_IsbL-0150_RLatLon0.09_PT003H.grib2 2026-04-29 02:40 424K
20260429T00Z_MSC_RDPS_AirTemp_IsbL-0175_RLatLon0.09_PT003H.grib2 2026-04-29 02:40 415K
20260429T00Z_MSC_RDPS_AirTemp_IsbL-0200_RLatLon0.09_PT003H.grib2 2026-04-29 02:40 419K
20260429T00Z_MSC_RDPS_AirTemp_IsbL-0225_RLatLon0.09_PT003H.grib2 2026-04-29 02:40 421K
20260429T00Z_MSC_RDPS_AirTemp_IsbL-0250_RLatLon0.09_PT003H.grib2 2026-04-29 02:40 430K
20260429T00Z_MSC_RDPS_AirTemp_IsbL-0275_RLatLon0.09_PT003H.grib2 2026-04-29 02:40 412K
20260429T00Z_MSC_RDPS_AirTemp_IsbL-0300_RLatLon0.09_PT003H.grib2 2026-04-29 02:40 419K
20260429T00Z_MSC_RDPS_AirTemp_IsbL-0350_RLatLon0.09_PT003H.grib2 2026-04-29 02:40 431K
20260429T00Z_MSC_RDPS_AirTemp_IsbL-0400_RLatLon0.09_PT003H.grib2 2026-04-29 02:40 432K
20260429T00Z_MSC_RDPS_AirTemp_IsbL-0450_RLatLon0.09_PT003H.grib2 2026-04-29 02:40 438K
20260429T00Z_MSC_RDPS_AirTemp_IsbL-0500_RLatLon0.09_PT003H.grib2 2026-04-29 02:40 413K
20260429T00Z_MSC_RDPS_AirTemp_IsbL-0550_RLatLon0.09_PT003H.grib2 2026-04-29 02:40 428K
20260429T00Z_MSC_RDPS_AirTemp_IsbL-0600_RLatLon0.09_PT003H.grib2 2026-04-29 02:40 445K
20260429T00Z_MSC_RDPS_AirTemp_IsbL-0650_RLatLon0.09_PT003H.grib2 2026-04-29 02:40 459K
20260429T00Z_MSC_RDPS_AirTemp_IsbL-0700_RLatLon0.09_PT003H.grib2 2026-04-29 02:40 375K
20260429T00Z_MSC_RDPS_AirTemp_IsbL-0750_RLatLon0.09_PT003H.grib2 2026-04-29 02:40 406K
20260429T00Z_MSC_RDPS_AirTemp_IsbL-0800_RLatLon0.09_PT003H.grib2 2026-04-29 02:40 445K
20260429T00Z_MSC_RDPS_AirTemp_IsbL-0850_RLatLon0.09_PT003H.grib2 2026-04-29 02:40 488K
20260429T00Z_MSC_RDPS_AirTemp_IsbL-0875_RLatLon0.09_PT003H.grib2 2026-04-29 02:40 504K
20260429T00Z_MSC_RDPS_AirTemp_IsbL-0900_RLatLon0.09_PT003H.grib2 2026-04-29 02:40 510K
20260429T00Z_MSC_RDPS_AirTemp_IsbL-0925_RLatLon0.09_PT003H.grib2 2026-04-29 02:40 508K
20260429T00Z_MSC_RDPS_AirTemp_IsbL-0950_RLatLon0.09_PT003H.grib2 2026-04-29 02:40 513K
20260429T00Z_MSC_RDPS_AirTemp_IsbL-0970_RLatLon0.09_PT003H.grib2 2026-04-29 02:40 506K
20260429T00Z_MSC_RDPS_AirTemp_IsbL-0985_RLatLon0.09_PT003H.grib2 2026-04-29 02:40 491K
20260429T00Z_MSC_RDPS_AirTemp_IsbL-1000_RLatLon0.09_PT003H.grib2 2026-04-29 02:40 471K
20260429T00Z_MSC_RDPS_AirTemp_IsbL-1015_RLatLon0.09_PT003H.grib2 2026-04-29 02:40 485K
20260429T00Z_MSC_RDPS_Albedo_Sfc_RLatLon0.09_PT003H.grib2 2026-04-29 02:40 164K
20260429T00Z_MSC_RDPS_CAPE_Sfc_RLatLon0.09_PT003H.grib2 2026-04-29 02:40 1.6M
20260429T00Z_MSC_RDPS_CIN_Sfc_RLatLon0.09_PT003H.grib2 2026-04-29 02:40 1.1M
20260429T00Z_MSC_RDPS_CloudWater_EAtm_RLatLon0.09_PT003H.grib2 2026-04-29 02:40 215K
20260429T00Z_MSC_RDPS_ConvectivePrecip-Accum_Sfc_RLatLon0.09_PT003H.grib2 2026-04-29 02:40 396K
20260429T00Z_MSC_RDPS_DewPointDepression_AGL-2m_RLatLon0.09_PT003H.grib2 2026-04-29 02:40 389K
20260429T00Z_MSC_RDPS_DewPointDepression_IsbL-0001_RLatLon0.09_PT003H.grib2 2026-04-29 02:40 193
20260429T00Z_MSC_RDPS_DewPointDepression_IsbL-0005_RLatLon0.09_PT003H.grib2 2026-04-29 02:40 193
20260429T00Z_MSC_RDPS_DewPointDepression_IsbL-0010_RLatLon0.09_PT003H.grib2 2026-04-29 02:40 193
20260429T00Z_MSC_RDPS_DewPointDepression_IsbL-0020_RLatLon0.09_PT003H.grib2 2026-04-29 02:40 193
20260429T00Z_MSC_RDPS_DewPointDepression_IsbL-0030_RLatLon0.09_PT003H.grib2 2026-04-29 02:40 193
20260429T00Z_MSC_RDPS_DewPointDepression_IsbL-0050_RLatLon0.09_PT003H.grib2 2026-04-29 02:40 84K
20260429T00Z_MSC_RDPS_DewPointDepression_IsbL-0100_RLatLon0.09_PT003H.grib2 2026-04-29 02:40 130K
20260429T00Z_MSC_RDPS_DewPointDepression_IsbL-0150_RLatLon0.09_PT003H.grib2 2026-04-29 02:40 159K
20260429T00Z_MSC_RDPS_DewPointDepression_IsbL-0175_RLatLon0.09_PT003H.grib2 2026-04-29 02:40 187K
20260429T00Z_MSC_RDPS_DewPointDepression_IsbL-0200_RLatLon0.09_PT003H.grib2 2026-04-29 02:40 223K
20260429T00Z_MSC_RDPS_DewPointDepression_IsbL-0225_RLatLon0.09_PT003H.grib2 2026-04-29 02:40 269K
20260429T00Z_MSC_RDPS_DewPointDepression_IsbL-0250_RLatLon0.09_PT003H.grib2 2026-04-29 02:40 306K
20260429T00Z_MSC_RDPS_DewPointDepression_IsbL-0275_RLatLon0.09_PT003H.grib2 2026-04-29 02:40 311K
20260429T00Z_MSC_RDPS_DewPointDepression_IsbL-0300_RLatLon0.09_PT003H.grib2 2026-04-29 02:40 329K
20260429T00Z_MSC_RDPS_DewPointDepression_IsbL-0350_RLatLon0.09_PT003H.grib2 2026-04-29 02:40 335K
20260429T00Z_MSC_RDPS_DewPointDepression_IsbL-0400_RLatLon0.09_PT003H.grib2 2026-04-29 02:40 343K
20260429T00Z_MSC_RDPS_DewPointDepression_IsbL-0450_RLatLon0.09_PT003H.grib2 2026-04-29 02:40 350K
20260429T00Z_MSC_RDPS_DewPointDepression_IsbL-0500_RLatLon0.09_PT003H.grib2 2026-04-29 02:40 353K
20260429T00Z_MSC_RDPS_DewPointDepression_IsbL-0550_RLatLon0.09_PT003H.grib2 2026-04-29 02:40 361K
20260429T00Z_MSC_RDPS_DewPointDepression_IsbL-0600_RLatLon0.09_PT003H.grib2 2026-04-29 02:40 371K
20260429T00Z_MSC_RDPS_DewPointDepression_IsbL-0650_RLatLon0.09_PT003H.grib2 2026-04-29 02:40 374K
20260429T00Z_MSC_RDPS_DewPointDepression_IsbL-0700_RLatLon0.09_PT003H.grib2 2026-04-29 02:40 388K
20260429T00Z_MSC_RDPS_DewPointDepression_IsbL-0750_RLatLon0.09_PT003H.grib2 2026-04-29 02:40 406K
20260429T00Z_MSC_RDPS_DewPointDepression_IsbL-0800_RLatLon0.09_PT003H.grib2 2026-04-29 02:40 433K
20260429T00Z_MSC_RDPS_DewPointDepression_IsbL-0850_RLatLon0.09_PT003H.grib2 2026-04-29 02:40 454K
20260429T00Z_MSC_RDPS_DewPointDepression_IsbL-0875_RLatLon0.09_PT003H.grib2 2026-04-29 02:40 454K
20260429T00Z_MSC_RDPS_DewPointDepression_IsbL-0900_RLatLon0.09_PT003H.grib2 2026-04-29 02:40 450K
20260429T00Z_MSC_RDPS_DewPointDepression_IsbL-0925_RLatLon0.09_PT003H.grib2 2026-04-29 02:40 443K
20260429T00Z_MSC_RDPS_DewPointDepression_IsbL-0950_RLatLon0.09_PT003H.grib2 2026-04-29 02:40 438K
20260429T00Z_MSC_RDPS_DewPointDepression_IsbL-0970_RLatLon0.09_PT003H.grib2 2026-04-29 02:40 427K
20260429T00Z_MSC_RDPS_DewPointDepression_IsbL-0985_RLatLon0.09_PT003H.grib2 2026-04-29 02:40 417K
20260429T00Z_MSC_RDPS_DewPointDepression_IsbL-1000_RLatLon0.09_PT003H.grib2 2026-04-29 02:40 408K
20260429T00Z_MSC_RDPS_DewPointDepression_IsbL-1015_RLatLon0.09_PT003H.grib2 2026-04-29 02:40 400K
20260429T00Z_MSC_RDPS_DewPoint_AGL-2m_RLatLon0.09_PT003H.grib2 2026-04-29 02:40 296K
20260429T00Z_MSC_RDPS_DownwardLongwaveRadiationFlux-Accum_Sfc_RLatLon0.09_PT003H.grib2 2026-04-29 02:40 557K
20260429T00Z_MSC_RDPS_DownwardShortwaveRadiationFlux-Accum_NTAtm_RLatLon0.09_PT003H.grib2 2026-04-29 02:40 81K
20260429T00Z_MSC_RDPS_DownwardShortwaveRadiationFlux-Accum_Sfc_RLatLon0.09_PT003H.grib2 2026-04-29 02:40 355K
20260429T00Z_MSC_RDPS_FreezingRain-Accum1h_Sfc_RLatLon0.09_PT003H.grib2 2026-04-29 02:40 18K
20260429T00Z_MSC_RDPS_FreezingRain-Accum3h_Sfc_RLatLon0.09_PT003H.grib2 2026-04-29 02:40 23K
20260429T00Z_MSC_RDPS_FreezingRain-Accum_Sfc_RLatLon0.09_PT003H.grib2 2026-04-29 02:40 30K
20260429T00Z_MSC_RDPS_GeopotentialHeight_IsbL-0001_RLatLon0.09_PT003H.grib2 2026-04-29 02:40 238K
20260429T00Z_MSC_RDPS_GeopotentialHeight_IsbL-0005_RLatLon0.09_PT003H.grib2 2026-04-29 02:40 334K
20260429T00Z_MSC_RDPS_GeopotentialHeight_IsbL-0010_RLatLon0.09_PT003H.grib2 2026-04-29 02:40 335K
20260429T00Z_MSC_RDPS_GeopotentialHeight_IsbL-0020_RLatLon0.09_PT003H.grib2 2026-04-29 02:40 300K
20260429T00Z_MSC_RDPS_GeopotentialHeight_IsbL-0030_RLatLon0.09_PT003H.grib2 2026-04-29 02:40 301K
20260429T00Z_MSC_RDPS_GeopotentialHeight_IsbL-0050_RLatLon0.09_PT003H.grib2 2026-04-29 02:40 336K
20260429T00Z_MSC_RDPS_GeopotentialHeight_IsbL-0100_RLatLon0.09_PT003H.grib2 2026-04-29 02:40 286K
20260429T00Z_MSC_RDPS_GeopotentialHeight_IsbL-0150_RLatLon0.09_PT003H.grib2 2026-04-29 02:40 230K
20260429T00Z_MSC_RDPS_GeopotentialHeight_IsbL-0175_RLatLon0.09_PT003H.grib2 2026-04-29 02:40 265K
20260429T00Z_MSC_RDPS_GeopotentialHeight_IsbL-0200_RLatLon0.09_PT003H.grib2 2026-04-29 02:40 268K
20260429T00Z_MSC_RDPS_GeopotentialHeight_IsbL-0225_RLatLon0.09_PT003H.grib2 2026-04-29 02:40 269K
20260429T00Z_MSC_RDPS_GeopotentialHeight_IsbL-0250_RLatLon0.09_PT003H.grib2 2026-04-29 02:40 269K
20260429T00Z_MSC_RDPS_GeopotentialHeight_IsbL-0275_RLatLon0.09_PT003H.grib2 2026-04-29 02:40 268K
20260429T00Z_MSC_RDPS_GeopotentialHeight_IsbL-0300_RLatLon0.09_PT003H.grib2 2026-04-29 02:40 268K
20260429T00Z_MSC_RDPS_GeopotentialHeight_IsbL-0350_RLatLon0.09_PT003H.grib2 2026-04-29 02:40 234K
20260429T00Z_MSC_RDPS_GeopotentialHeight_IsbL-0400_RLatLon0.09_PT003H.grib2 2026-04-29 02:40 231K
20260429T00Z_MSC_RDPS_GeopotentialHeight_IsbL-0450_RLatLon0.09_PT003H.grib2 2026-04-29 02:40 227K
20260429T00Z_MSC_RDPS_GeopotentialHeight_IsbL-0500_RLatLon0.09_PT003H.grib2 2026-04-29 02:40 293K
20260429T00Z_MSC_RDPS_GeopotentialHeight_IsbL-0550_RLatLon0.09_PT003H.grib2 2026-04-29 02:40 290K
20260429T00Z_MSC_RDPS_GeopotentialHeight_IsbL-0600_RLatLon0.09_PT003H.grib2 2026-04-29 02:40 285K
20260429T00Z_MSC_RDPS_GeopotentialHeight_IsbL-0650_RLatLon0.09_PT003H.grib2 2026-04-29 02:40 256K
20260429T00Z_MSC_RDPS_GeopotentialHeight_IsbL-0700_RLatLon0.09_PT003H.grib2 2026-04-29 02:40 254K
20260429T00Z_MSC_RDPS_GeopotentialHeight_IsbL-0750_RLatLon0.09_PT003H.grib2 2026-04-29 02:40 337K
20260429T00Z_MSC_RDPS_GeopotentialHeight_IsbL-0800_RLatLon0.09_PT003H.grib2 2026-04-29 02:40 343K
20260429T00Z_MSC_RDPS_GeopotentialHeight_IsbL-0850_RLatLon0.09_PT003H.grib2 2026-04-29 02:40 350K
20260429T00Z_MSC_RDPS_GeopotentialHeight_IsbL-0875_RLatLon0.09_PT003H.grib2 2026-04-29 02:40 353K
20260429T00Z_MSC_RDPS_GeopotentialHeight_IsbL-0900_RLatLon0.09_PT003H.grib2 2026-04-29 02:40 357K
20260429T00Z_MSC_RDPS_GeopotentialHeight_IsbL-0925_RLatLon0.09_PT003H.grib2 2026-04-29 02:40 359K
20260429T00Z_MSC_RDPS_GeopotentialHeight_IsbL-0950_RLatLon0.09_PT003H.grib2 2026-04-29 02:40 365K
20260429T00Z_MSC_RDPS_GeopotentialHeight_IsbL-0970_RLatLon0.09_PT003H.grib2 2026-04-29 02:40 371K
20260429T00Z_MSC_RDPS_GeopotentialHeight_IsbL-0985_RLatLon0.09_PT003H.grib2 2026-04-29 02:40 378K
20260429T00Z_MSC_RDPS_GeopotentialHeight_IsbL-1000_RLatLon0.09_PT003H.grib2 2026-04-29 02:40 388K
20260429T00Z_MSC_RDPS_GeopotentialHeight_IsbL-1015_RLatLon0.09_PT003H.grib2 2026-04-29 02:40 400K
20260429T00Z_MSC_RDPS_Humidex_Sfc_RLatLon0.09_PT003H.grib2 2026-04-29 02:40 2.4M
20260429T00Z_MSC_RDPS_IcePellets-Accum1h_Sfc_RLatLon0.09_PT003H.grib2 2026-04-29 02:40 4.5K
20260429T00Z_MSC_RDPS_IcePellets-Accum3h_Sfc_RLatLon0.09_PT003H.grib2 2026-04-29 02:40 5.6K
20260429T00Z_MSC_RDPS_IcePellets-Accum_Sfc_RLatLon0.09_PT003H.grib2 2026-04-29 02:40 5.7K
20260429T00Z_MSC_RDPS_KIndex_Sfc_RLatLon0.09_PT003H.grib2 2026-04-29 02:40 2.4M
20260429T00Z_MSC_RDPS_LatentHeatNetFlux_Sfc_RLatLon0.09_PT003H.grib2 2026-04-29 02:40 397K
20260429T00Z_MSC_RDPS_LiftedIndex-MU-VT_IsbL-0500_RLatLon0.09_PT003H.grib2 2026-04-29 02:40 2.4M
20260429T00Z_MSC_RDPS_NetLongwaveRadiationFlux-Accum_Sfc_RLatLon0.09_PT003H.grib2 2026-04-29 02:40 564K
20260429T00Z_MSC_RDPS_NetShortwaveRadiationFlux-Accum_Sfc_RLatLon0.09_PT003H.grib2 2026-04-29 02:40 334K
20260429T00Z_MSC_RDPS_PlanetaryBoundaryLayerHeight_Sfc_RLatLon0.09_PT003H.grib2 2026-04-29 02:40 1.1M
20260429T00Z_MSC_RDPS_Precip-Accum1h_Sfc_RLatLon0.09_PT003H.grib2 2026-04-29 02:40 1.1M
20260429T00Z_MSC_RDPS_Precip-Accum3h_Sfc_RLatLon0.09_PT003H.grib2 2026-04-29 02:40 1.2M
20260429T00Z_MSC_RDPS_Precip-Accum_Sfc_RLatLon0.09_PT003H.grib2 2026-04-29 02:40 1.2M
20260429T00Z_MSC_RDPS_PrecipRate_Sfc_RLatLon0.09_PT003H.grib2 2026-04-29 02:40 164K
20260429T00Z_MSC_RDPS_PrecipType-Instant_Sfc_RLatLon0.09_PT003H.grib2 2026-04-29 02:40 513K
20260429T00Z_MSC_RDPS_Pressure-Trend3h_Sfc_RLatLon0.09_PT003H.grib2 2026-04-29 02:40 1.2M
20260429T00Z_MSC_RDPS_Pressure_MSL_RLatLon0.09_PT003H.grib2 2026-04-29 02:40 290K
20260429T00Z_MSC_RDPS_Pressure_PVU-1.5_RLatLon0.09_PT003H.grib2 2026-04-29 02:40 2.3M
20260429T00Z_MSC_RDPS_Pressure_PVU-1_RLatLon0.09_PT003H.grib2 2026-04-29 02:40 2.4M
20260429T00Z_MSC_RDPS_Pressure_PVU-2_RLatLon0.09_PT003H.grib2 2026-04-29 02:40 2.4M
20260429T00Z_MSC_RDPS_Pressure_Sfc_RLatLon0.09_PT003H.grib2 2026-04-29 02:40 499K
20260429T00Z_MSC_RDPS_RadiativeTemp_Sfc_RLatLon0.09_PT003H.grib2 2026-04-29 02:40 294K
20260429T00Z_MSC_RDPS_Rain-Accum1h_Sfc_RLatLon0.09_PT003H.grib2 2026-04-29 02:40 549K
20260429T00Z_MSC_RDPS_Rain-Accum3h_Sfc_RLatLon0.09_PT003H.grib2 2026-04-29 02:40 562K
20260429T00Z_MSC_RDPS_Rain-Accum_Sfc_RLatLon0.09_PT003H.grib2 2026-04-29 02:40 868K
20260429T00Z_MSC_RDPS_RelativeHumidity_AGL-2m_RLatLon0.09_PT003H.grib2 2026-04-29 02:40 1.0M
20260429T00Z_MSC_RDPS_RelativeHumidity_IsbL-0010_RLatLon0.09_PT003H.grib2 2026-04-29 02:40 619K
20260429T00Z_MSC_RDPS_RelativeHumidity_IsbL-0020_RLatLon0.09_PT003H.grib2 2026-04-29 02:40 646K
20260429T00Z_MSC_RDPS_RelativeHumidity_IsbL-0030_RLatLon0.09_PT003H.grib2 2026-04-29 02:40 603K
20260429T00Z_MSC_RDPS_RelativeHumidity_IsbL-0050_RLatLon0.09_PT003H.grib2 2026-04-29 02:40 316K
20260429T00Z_MSC_RDPS_RelativeHumidity_IsbL-0100_RLatLon0.09_PT003H.grib2 2026-04-29 02:40 276K
20260429T00Z_MSC_RDPS_RelativeHumidity_IsbL-0150_RLatLon0.09_PT003H.grib2 2026-04-29 02:40 418K
20260429T00Z_MSC_RDPS_RelativeHumidity_IsbL-0175_RLatLon0.09_PT003H.grib2 2026-04-29 02:40 490K
20260429T00Z_MSC_RDPS_RelativeHumidity_IsbL-0200_RLatLon0.09_PT003H.grib2 2026-04-29 02:40 555K
20260429T00Z_MSC_RDPS_RelativeHumidity_IsbL-0225_RLatLon0.09_PT003H.grib2 2026-04-29 02:40 615K
20260429T00Z_MSC_RDPS_RelativeHumidity_IsbL-0250_RLatLon0.09_PT003H.grib2 2026-04-29 02:40 682K
20260429T00Z_MSC_RDPS_RelativeHumidity_IsbL-0275_RLatLon0.09_PT003H.grib2 2026-04-29 02:40 713K
20260429T00Z_MSC_RDPS_RelativeHumidity_IsbL-0300_RLatLon0.09_PT003H.grib2 2026-04-29 02:40 755K
20260429T00Z_MSC_RDPS_RelativeHumidity_IsbL-0350_RLatLon0.09_PT003H.grib2 2026-04-29 02:40 777K
20260429T00Z_MSC_RDPS_RelativeHumidity_IsbL-0400_RLatLon0.09_PT003H.grib2 2026-04-29 02:40 786K
20260429T00Z_MSC_RDPS_RelativeHumidity_IsbL-0450_RLatLon0.09_PT003H.grib2 2026-04-29 02:40 789K
20260429T00Z_MSC_RDPS_RelativeHumidity_IsbL-0500_RLatLon0.09_PT003H.grib2 2026-04-29 02:40 805K
20260429T00Z_MSC_RDPS_RelativeHumidity_IsbL-0550_RLatLon0.09_PT003H.grib2 2026-04-29 02:40 819K
20260429T00Z_MSC_RDPS_RelativeHumidity_IsbL-0600_RLatLon0.09_PT003H.grib2 2026-04-29 02:40 836K
20260429T00Z_MSC_RDPS_RelativeHumidity_IsbL-0650_RLatLon0.09_PT003H.grib2 2026-04-29 02:40 845K
20260429T00Z_MSC_RDPS_RelativeHumidity_IsbL-0700_RLatLon0.09_PT003H.grib2 2026-04-29 02:40 870K
20260429T00Z_MSC_RDPS_RelativeHumidity_IsbL-0750_RLatLon0.09_PT003H.grib2 2026-04-29 02:40 911K
20260429T00Z_MSC_RDPS_RelativeHumidity_IsbL-0800_RLatLon0.09_PT003H.grib2 2026-04-29 02:40 970K
20260429T00Z_MSC_RDPS_RelativeHumidity_IsbL-0850_RLatLon0.09_PT003H.grib2 2026-04-29 02:40 1.0M
20260429T00Z_MSC_RDPS_RelativeHumidity_IsbL-0875_RLatLon0.09_PT003H.grib2 2026-04-29 02:40 1.0M
20260429T00Z_MSC_RDPS_RelativeHumidity_IsbL-0900_RLatLon0.09_PT003H.grib2 2026-04-29 02:40 1.0M
20260429T00Z_MSC_RDPS_RelativeHumidity_IsbL-0925_RLatLon0.09_PT003H.grib2 2026-04-29 02:40 1.0M
20260429T00Z_MSC_RDPS_RelativeHumidity_IsbL-0950_RLatLon0.09_PT003H.grib2 2026-04-29 02:40 1.0M
20260429T00Z_MSC_RDPS_RelativeHumidity_IsbL-0970_RLatLon0.09_PT003H.grib2 2026-04-29 02:40 1.0M
20260429T00Z_MSC_RDPS_RelativeHumidity_IsbL-0985_RLatLon0.09_PT003H.grib2 2026-04-29 02:40 1.0M
20260429T00Z_MSC_RDPS_RelativeHumidity_IsbL-1000_RLatLon0.09_PT003H.grib2 2026-04-29 02:40 1.0M
20260429T00Z_MSC_RDPS_RelativeHumidity_IsbL-1015_RLatLon0.09_PT003H.grib2 2026-04-29 02:40 1.0M
20260429T00Z_MSC_RDPS_Runoff-Accum_Sfc_RLatLon0.09_PT003H.grib2 2026-04-29 02:40 42K
20260429T00Z_MSC_RDPS_SWEATIndex_Sfc_RLatLon0.09_PT003H.grib2 2026-04-29 02:40 2.4M
20260429T00Z_MSC_RDPS_SeeingIndex_EAtm_RLatLon0.09_PT003H.grib2 2026-04-29 02:40 1.0M
20260429T00Z_MSC_RDPS_SensibleHeatNetFlux_Sfc_RLatLon0.09_PT003H.grib2 2026-04-29 02:40 287K
20260429T00Z_MSC_RDPS_ShowalterIndex_IsbL-0500_RLatLon0.09_PT003H.grib2 2026-04-29 02:40 2.6M
20260429T00Z_MSC_RDPS_SkyTransparencyIndex_EAtm_RLatLon0.09_PT003H.grib2 2026-04-29 02:40 685K
20260429T00Z_MSC_RDPS_Snow-Accum1h_Sfc_RLatLon0.09_PT003H.grib2 2026-04-29 02:40 465K
20260429T00Z_MSC_RDPS_Snow-Accum3h_Sfc_RLatLon0.09_PT003H.grib2 2026-04-29 02:40 440K
20260429T00Z_MSC_RDPS_Snow-Accum_Sfc_RLatLon0.09_PT003H.grib2 2026-04-29 02:40 577K
20260429T00Z_MSC_RDPS_SnowDensity_Sfc_RLatLon0.09_PT003H.grib2 2026-04-29 02:40 171K
20260429T00Z_MSC_RDPS_SnowDepth_Sfc_RLatLon0.09_PT003H.grib2 2026-04-29 02:40 683K
20260429T00Z_MSC_RDPS_SoilTemp_DBS-0to10cm_RLatLon0.09_PT003H.grib2 2026-04-29 02:40 192K
20260429T00Z_MSC_RDPS_SoilTemp_Sfc_RLatLon0.09_PT003H.grib2 2026-04-29 02:40 255K
20260429T00Z_MSC_RDPS_SoilVolumetricIceContent_Sfc_RLatLon0.09_PT003H.grib2 2026-04-29 02:40 166K
20260429T00Z_MSC_RDPS_SoilVolumetricWaterContent_DBS-0to10cm_RLatLon0.09_PT003H.grib2 2026-04-29 02:40 263K
20260429T00Z_MSC_RDPS_SoilVolumetricWaterContent_DBS-0to1cm_RLatLon0.09_PT003H.grib2 2026-04-29 02:40 329K
20260429T00Z_MSC_RDPS_SpecificHumidity_AGL-120m_RLatLon0.09_PT003H.grib2 2026-04-29 02:40 466K
20260429T00Z_MSC_RDPS_SpecificHumidity_AGL-2m_RLatLon0.09_PT003H.grib2 2026-04-29 02:40 627K
20260429T00Z_MSC_RDPS_SpecificHumidity_AGL-40m_RLatLon0.09_PT003H.grib2 2026-04-29 02:40 471K
20260429T00Z_MSC_RDPS_SpecificHumidity_AGL-80m_RLatLon0.09_PT003H.grib2 2026-04-29 02:40 467K
20260429T00Z_MSC_RDPS_SpecificHumidity_IsbL-0001_RLatLon0.09_PT003H.grib2 2026-04-29 02:40 377K
20260429T00Z_MSC_RDPS_SpecificHumidity_IsbL-0005_RLatLon0.09_PT003H.grib2 2026-04-29 02:40 353K
20260429T00Z_MSC_RDPS_SpecificHumidity_IsbL-0010_RLatLon0.09_PT003H.grib2 2026-04-29 02:40 390K
20260429T00Z_MSC_RDPS_SpecificHumidity_IsbL-0020_RLatLon0.09_PT003H.grib2 2026-04-29 02:40 385K
20260429T00Z_MSC_RDPS_SpecificHumidity_IsbL-0030_RLatLon0.09_PT003H.grib2 2026-04-29 02:40 370K
20260429T00Z_MSC_RDPS_SpecificHumidity_IsbL-0050_RLatLon0.09_PT003H.grib2 2026-04-29 02:40 456K
20260429T00Z_MSC_RDPS_SpecificHumidity_IsbL-0100_RLatLon0.09_PT003H.grib2 2026-04-29 02:40 344K
20260429T00Z_MSC_RDPS_SpecificHumidity_IsbL-0150_RLatLon0.09_PT003H.grib2 2026-04-29 02:40 455K
20260429T00Z_MSC_RDPS_SpecificHumidity_IsbL-0175_RLatLon0.09_PT003H.grib2 2026-04-29 02:40 448K
20260429T00Z_MSC_RDPS_SpecificHumidity_IsbL-0200_RLatLon0.09_PT003H.grib2 2026-04-29 02:40 456K
20260429T00Z_MSC_RDPS_SpecificHumidity_IsbL-0225_RLatLon0.09_PT003H.grib2 2026-04-29 02:40 454K
20260429T00Z_MSC_RDPS_SpecificHumidity_IsbL-0250_RLatLon0.09_PT003H.grib2 2026-04-29 02:40 554K
20260429T00Z_MSC_RDPS_SpecificHumidity_IsbL-0275_RLatLon0.09_PT003H.grib2 2026-04-29 02:40 472K
20260429T00Z_MSC_RDPS_SpecificHumidity_IsbL-0300_RLatLon0.09_PT003H.grib2 2026-04-29 02:40 444K
20260429T00Z_MSC_RDPS_SpecificHumidity_IsbL-0350_RLatLon0.09_PT003H.grib2 2026-04-29 02:40 442K
20260429T00Z_MSC_RDPS_SpecificHumidity_IsbL-0400_RLatLon0.09_PT003H.grib2 2026-04-29 02:40 520K
20260429T00Z_MSC_RDPS_SpecificHumidity_IsbL-0450_RLatLon0.09_PT003H.grib2 2026-04-29 02:40 572K
20260429T00Z_MSC_RDPS_SpecificHumidity_IsbL-0500_RLatLon0.09_PT003H.grib2 2026-04-29 02:40 505K
20260429T00Z_MSC_RDPS_SpecificHumidity_IsbL-0550_RLatLon0.09_PT003H.grib2 2026-04-29 02:40 576K
20260429T00Z_MSC_RDPS_SpecificHumidity_IsbL-0600_RLatLon0.09_PT003H.grib2 2026-04-29 02:40 627K
20260429T00Z_MSC_RDPS_SpecificHumidity_IsbL-0650_RLatLon0.09_PT003H.grib2 2026-04-29 02:40 544K
20260429T00Z_MSC_RDPS_SpecificHumidity_IsbL-0700_RLatLon0.09_PT003H.grib2 2026-04-29 02:40 586K
20260429T00Z_MSC_RDPS_SpecificHumidity_IsbL-0750_RLatLon0.09_PT003H.grib2 2026-04-29 02:40 651K
20260429T00Z_MSC_RDPS_SpecificHumidity_IsbL-0800_RLatLon0.09_PT003H.grib2 2026-04-29 02:40 713K
20260429T00Z_MSC_RDPS_SpecificHumidity_IsbL-0850_RLatLon0.09_PT003H.grib2 2026-04-29 02:40 779K
20260429T00Z_MSC_RDPS_SpecificHumidity_IsbL-0875_RLatLon0.09_PT003H.grib2 2026-04-29 02:40 802K
20260429T00Z_MSC_RDPS_SpecificHumidity_IsbL-0900_RLatLon0.09_PT003H.grib2 2026-04-29 02:40 817K
20260429T00Z_MSC_RDPS_SpecificHumidity_IsbL-0925_RLatLon0.09_PT003H.grib2 2026-04-29 02:40 683K
20260429T00Z_MSC_RDPS_SpecificHumidity_IsbL-0950_RLatLon0.09_PT003H.grib2 2026-04-29 02:40 684K
20260429T00Z_MSC_RDPS_SpecificHumidity_IsbL-0970_RLatLon0.09_PT003H.grib2 2026-04-29 02:40 673K
20260429T00Z_MSC_RDPS_SpecificHumidity_IsbL-0985_RLatLon0.09_PT003H.grib2 2026-04-29 02:40 661K
20260429T00Z_MSC_RDPS_SpecificHumidity_IsbL-1000_RLatLon0.09_PT003H.grib2 2026-04-29 02:40 649K
20260429T00Z_MSC_RDPS_SpecificHumidity_IsbL-1015_RLatLon0.09_PT003H.grib2 2026-04-29 02:40 639K
20260429T00Z_MSC_RDPS_SpecificHumidity_Sfc_RLatLon0.09_PT003H.grib2 2026-04-29 02:40 289K
20260429T00Z_MSC_RDPS_StormRelativeHelicity_EtaL-10000_RLatLon0.09_PT003H.grib2 2026-04-29 02:40 1.1M
20260429T00Z_MSC_RDPS_StormSeverityIndex_EtaL-10000_RLatLon0.09_PT003H.grib2 2026-04-29 02:40 1.1M
20260429T00Z_MSC_RDPS_Thickness_IsbL-0850to0700_RLatLon0.09_PT003H.grib2 2026-04-29 02:40 176K
20260429T00Z_MSC_RDPS_Thickness_IsbL-1000to0500_RLatLon0.09_PT003H.grib2 2026-04-29 02:40 198K
20260429T00Z_MSC_RDPS_Thickness_IsbL-1000to0850_RLatLon0.09_PT003H.grib2 2026-04-29 02:40 182K
20260429T00Z_MSC_RDPS_TotalCloudCover_Sfc_RLatLon0.09_PT003H.grib2 2026-04-29 02:40 640K
20260429T00Z_MSC_RDPS_TotalTotalsIndex_Sfc_RLatLon0.09_PT003H.grib2 2026-04-29 02:40 2.3M
20260429T00Z_MSC_RDPS_UVIndex-ClearSky_Sfc_RLatLon0.09_PT003H.grib2 2026-04-29 02:40 94K
20260429T00Z_MSC_RDPS_UVIndex_Sfc_RLatLon0.09_PT003H.grib2 2026-04-29 02:40 184K
20260429T00Z_MSC_RDPS_UpwardLongwaveRadiationFlux_NTAtm_RLatLon0.09_PT003H.grib2 2026-04-29 02:40 488K
20260429T00Z_MSC_RDPS_UpwardShortwaveRadiationFlux_NTAtm_RLatLon0.09_PT003H.grib2 2026-04-29 02:40 187K
20260429T00Z_MSC_RDPS_VerticalVelocity_IsbL-0250_RLatLon0.09_PT003H.grib2 2026-04-29 02:40 555K
20260429T00Z_MSC_RDPS_VerticalVelocity_IsbL-0500_RLatLon0.09_PT003H.grib2 2026-04-29 02:40 545K
20260429T00Z_MSC_RDPS_VerticalVelocity_IsbL-0700_RLatLon0.09_PT003H.grib2 2026-04-29 02:40 589K
20260429T00Z_MSC_RDPS_VerticalVelocity_IsbL-0850_RLatLon0.09_PT003H.grib2 2026-04-29 02:40 683K
20260429T00Z_MSC_RDPS_VerticalWindShear_EtaL-6500_RLatLon0.09_PT003H.grib2 2026-04-29 02:40 1.2M
20260429T00Z_MSC_RDPS_WindChill_Sfc_RLatLon0.09_PT003H.grib2 2026-04-29 02:40 1.1M
20260429T00Z_MSC_RDPS_WindDir_AGL-10m_RLatLon0.09_PT003H.grib2 2026-04-29 02:40 944K
20260429T00Z_MSC_RDPS_WindDir_AGL-120m_RLatLon0.09_PT003H.grib2 2026-04-29 02:40 587K
20260429T00Z_MSC_RDPS_WindDir_AGL-40m_RLatLon0.09_PT003H.grib2 2026-04-29 02:40 618K
20260429T00Z_MSC_RDPS_WindDir_AGL-80m_RLatLon0.09_PT003H.grib2 2026-04-29 02:40 599K
20260429T00Z_MSC_RDPS_WindDir_IsbL-0001_RLatLon0.09_PT003H.grib2 2026-04-29 02:40 309K
20260429T00Z_MSC_RDPS_WindDir_IsbL-0005_RLatLon0.09_PT003H.grib2 2026-04-29 02:40 361K
20260429T00Z_MSC_RDPS_WindDir_IsbL-0010_RLatLon0.09_PT003H.grib2 2026-04-29 02:40 379K
20260429T00Z_MSC_RDPS_WindDir_IsbL-0020_RLatLon0.09_PT003H.grib2 2026-04-29 02:40 400K
20260429T00Z_MSC_RDPS_WindDir_IsbL-0030_RLatLon0.09_PT003H.grib2 2026-04-29 02:40 405K
20260429T00Z_MSC_RDPS_WindDir_IsbL-0050_RLatLon0.09_PT003H.grib2 2026-04-29 02:40 405K
20260429T00Z_MSC_RDPS_WindDir_IsbL-0100_RLatLon0.09_PT003H.grib2 2026-04-29 02:40 410K
20260429T00Z_MSC_RDPS_WindDir_IsbL-0150_RLatLon0.09_PT003H.grib2 2026-04-29 02:40 416K
20260429T00Z_MSC_RDPS_WindDir_IsbL-0175_RLatLon0.09_PT003H.grib2 2026-04-29 02:40 434K
20260429T00Z_MSC_RDPS_WindDir_IsbL-0200_RLatLon0.09_PT003H.grib2 2026-04-29 02:40 440K
20260429T00Z_MSC_RDPS_WindDir_IsbL-0225_RLatLon0.09_PT003H.grib2 2026-04-29 02:40 441K
20260429T00Z_MSC_RDPS_WindDir_IsbL-0250_RLatLon0.09_PT003H.grib2 2026-04-29 02:40 451K
20260429T00Z_MSC_RDPS_WindDir_IsbL-0275_RLatLon0.09_PT003H.grib2 2026-04-29 02:40 475K
20260429T00Z_MSC_RDPS_WindDir_IsbL-0300_RLatLon0.09_PT003H.grib2 2026-04-29 02:40 473K
20260429T00Z_MSC_RDPS_WindDir_IsbL-0350_RLatLon0.09_PT003H.grib2 2026-04-29 02:40 497K
20260429T00Z_MSC_RDPS_WindDir_IsbL-0400_RLatLon0.09_PT003H.grib2 2026-04-29 02:40 513K
20260429T00Z_MSC_RDPS_WindDir_IsbL-0450_RLatLon0.09_PT003H.grib2 2026-04-29 02:40 529K
20260429T00Z_MSC_RDPS_WindDir_IsbL-0500_RLatLon0.09_PT003H.grib2 2026-04-29 02:40 548K
20260429T00Z_MSC_RDPS_WindDir_IsbL-0550_RLatLon0.09_PT003H.grib2 2026-04-29 02:40 563K
20260429T00Z_MSC_RDPS_WindDir_IsbL-0600_RLatLon0.09_PT003H.grib2 2026-04-29 02:40 590K
20260429T00Z_MSC_RDPS_WindDir_IsbL-0650_RLatLon0.09_PT003H.grib2 2026-04-29 02:40 628K
20260429T00Z_MSC_RDPS_WindDir_IsbL-0700_RLatLon0.09_PT003H.grib2 2026-04-29 02:40 668K
20260429T00Z_MSC_RDPS_WindDir_IsbL-0750_RLatLon0.09_PT003H.grib2 2026-04-29 02:40 716K
20260429T00Z_MSC_RDPS_WindDir_IsbL-0800_RLatLon0.09_PT003H.grib2 2026-04-29 02:40 778K
20260429T00Z_MSC_RDPS_WindDir_IsbL-0850_RLatLon0.09_PT003H.grib2 2026-04-29 02:40 845K
20260429T00Z_MSC_RDPS_WindDir_IsbL-0875_RLatLon0.09_PT003H.grib2 2026-04-29 02:40 869K
20260429T00Z_MSC_RDPS_WindDir_IsbL-0900_RLatLon0.09_PT003H.grib2 2026-04-29 02:40 883K
20260429T00Z_MSC_RDPS_WindDir_IsbL-0925_RLatLon0.09_PT003H.grib2 2026-04-29 02:40 893K
20260429T00Z_MSC_RDPS_WindDir_IsbL-0950_RLatLon0.09_PT003H.grib2 2026-04-29 02:40 897K
20260429T00Z_MSC_RDPS_WindDir_IsbL-0970_RLatLon0.09_PT003H.grib2 2026-04-29 02:40 904K
20260429T00Z_MSC_RDPS_WindDir_IsbL-0985_RLatLon0.09_PT003H.grib2 2026-04-29 02:40 909K
20260429T00Z_MSC_RDPS_WindDir_IsbL-1000_RLatLon0.09_PT003H.grib2 2026-04-29 02:40 920K
20260429T00Z_MSC_RDPS_WindDir_IsbL-1015_RLatLon0.09_PT003H.grib2 2026-04-29 02:40 936K
20260429T00Z_MSC_RDPS_WindGust-Max_AGL-10m_RLatLon0.09_PT003H.grib2 2026-04-29 02:40 938K
20260429T00Z_MSC_RDPS_WindGust-Min_AGL-10m_RLatLon0.09_PT003H.grib2 2026-04-29 02:40 960K
20260429T00Z_MSC_RDPS_WindGust_AGL-10m_RLatLon0.09_PT003H.grib2 2026-04-29 02:40 1.0M
20260429T00Z_MSC_RDPS_WindSpeed_AGL-10m_RLatLon0.09_PT003H.grib2 2026-04-29 02:40 820K
20260429T00Z_MSC_RDPS_WindSpeed_AGL-120m_RLatLon0.09_PT003H.grib2 2026-04-29 02:40 539K
20260429T00Z_MSC_RDPS_WindSpeed_AGL-40m_RLatLon0.09_PT003H.grib2 2026-04-29 02:40 543K
20260429T00Z_MSC_RDPS_WindSpeed_AGL-80m_RLatLon0.09_PT003H.grib2 2026-04-29 02:40 541K
20260429T00Z_MSC_RDPS_WindSpeed_IsbL-0001_RLatLon0.09_PT003H.grib2 2026-04-29 02:40 249K
20260429T00Z_MSC_RDPS_WindSpeed_IsbL-0005_RLatLon0.09_PT003H.grib2 2026-04-29 02:40 290K
20260429T00Z_MSC_RDPS_WindSpeed_IsbL-0010_RLatLon0.09_PT003H.grib2 2026-04-29 02:40 389K
20260429T00Z_MSC_RDPS_WindSpeed_IsbL-0020_RLatLon0.09_PT003H.grib2 2026-04-29 02:40 313K
20260429T00Z_MSC_RDPS_WindSpeed_IsbL-0030_RLatLon0.09_PT003H.grib2 2026-04-29 02:40 309K
20260429T00Z_MSC_RDPS_WindSpeed_IsbL-0050_RLatLon0.09_PT003H.grib2 2026-04-29 02:40 337K
20260429T00Z_MSC_RDPS_WindSpeed_IsbL-0100_RLatLon0.09_PT003H.grib2 2026-04-29 02:40 438K
20260429T00Z_MSC_RDPS_WindSpeed_IsbL-0150_RLatLon0.09_PT003H.grib2 2026-04-29 02:40 385K
20260429T00Z_MSC_RDPS_WindSpeed_IsbL-0175_RLatLon0.09_PT003H.grib2 2026-04-29 02:40 435K
20260429T00Z_MSC_RDPS_WindSpeed_IsbL-0200_RLatLon0.09_PT003H.grib2 2026-04-29 02:40 453K
20260429T00Z_MSC_RDPS_WindSpeed_IsbL-0225_RLatLon0.09_PT003H.grib2 2026-04-29 02:40 458K
20260429T00Z_MSC_RDPS_WindSpeed_IsbL-0250_RLatLon0.09_PT003H.grib2 2026-04-29 02:40 462K
20260429T00Z_MSC_RDPS_WindSpeed_IsbL-0275_RLatLon0.09_PT003H.grib2 2026-04-29 02:40 482K
20260429T00Z_MSC_RDPS_WindSpeed_IsbL-0300_RLatLon0.09_PT003H.grib2 2026-04-29 02:40 480K
20260429T00Z_MSC_RDPS_WindSpeed_IsbL-0350_RLatLon0.09_PT003H.grib2 2026-04-29 02:40 488K
20260429T00Z_MSC_RDPS_WindSpeed_IsbL-0400_RLatLon0.09_PT003H.grib2 2026-04-29 02:40 486K
20260429T00Z_MSC_RDPS_WindSpeed_IsbL-0450_RLatLon0.09_PT003H.grib2 2026-04-29 02:40 467K
20260429T00Z_MSC_RDPS_WindSpeed_IsbL-0500_RLatLon0.09_PT003H.grib2 2026-04-29 02:40 465K
20260429T00Z_MSC_RDPS_WindSpeed_IsbL-0550_RLatLon0.09_PT003H.grib2 2026-04-29 02:40 581K
20260429T00Z_MSC_RDPS_WindSpeed_IsbL-0600_RLatLon0.09_PT003H.grib2 2026-04-29 02:40 590K
20260429T00Z_MSC_RDPS_WindSpeed_IsbL-0650_RLatLon0.09_PT003H.grib2 2026-04-29 02:40 609K
20260429T00Z_MSC_RDPS_WindSpeed_IsbL-0700_RLatLon0.09_PT003H.grib2 2026-04-29 02:40 631K
20260429T00Z_MSC_RDPS_WindSpeed_IsbL-0750_RLatLon0.09_PT003H.grib2 2026-04-29 02:40 658K
20260429T00Z_MSC_RDPS_WindSpeed_IsbL-0800_RLatLon0.09_PT003H.grib2 2026-04-29 02:40 702K
20260429T00Z_MSC_RDPS_WindSpeed_IsbL-0850_RLatLon0.09_PT003H.grib2 2026-04-29 02:40 754K
20260429T00Z_MSC_RDPS_WindSpeed_IsbL-0875_RLatLon0.09_PT003H.grib2 2026-04-29 02:40 772K
20260429T00Z_MSC_RDPS_WindSpeed_IsbL-0900_RLatLon0.09_PT003H.grib2 2026-04-29 02:40 832K
20260429T00Z_MSC_RDPS_WindSpeed_IsbL-0925_RLatLon0.09_PT003H.grib2 2026-04-29 02:40 844K
20260429T00Z_MSC_RDPS_WindSpeed_IsbL-0950_RLatLon0.09_PT003H.grib2 2026-04-29 02:40 846K
20260429T00Z_MSC_RDPS_WindSpeed_IsbL-0970_RLatLon0.09_PT003H.grib2 2026-04-29 02:40 845K
20260429T00Z_MSC_RDPS_WindSpeed_IsbL-0985_RLatLon0.09_PT003H.grib2 2026-04-29 02:40 840K
20260429T00Z_MSC_RDPS_WindSpeed_IsbL-1000_RLatLon0.09_PT003H.grib2 2026-04-29 02:40 832K
20260429T00Z_MSC_RDPS_WindSpeed_IsbL-1015_RLatLon0.09_PT003H.grib2 2026-04-29 02:40 821K
20260429T00Z_MSC_RDPS_WindU_AGL-10m_RLatLon0.09_PT003H.grib2 2026-04-29 02:40 421K
20260429T00Z_MSC_RDPS_WindU_AGL-120m_RLatLon0.09_PT003H.grib2 2026-04-29 02:40 409K
20260429T00Z_MSC_RDPS_WindU_AGL-40m_RLatLon0.09_PT003H.grib2 2026-04-29 02:40 412K
20260429T00Z_MSC_RDPS_WindU_AGL-80m_RLatLon0.09_PT003H.grib2 2026-04-29 02:40 411K
20260429T00Z_MSC_RDPS_WindU_IsbL-0001_RLatLon0.09_PT003H.grib2 2026-04-29 02:40 290K
20260429T00Z_MSC_RDPS_WindU_IsbL-0005_RLatLon0.09_PT003H.grib2 2026-04-29 02:40 326K
20260429T00Z_MSC_RDPS_WindU_IsbL-0010_RLatLon0.09_PT003H.grib2 2026-04-29 02:40 332K
20260429T00Z_MSC_RDPS_WindU_IsbL-0020_RLatLon0.09_PT003H.grib2 2026-04-29 02:40 343K
20260429T00Z_MSC_RDPS_WindU_IsbL-0030_RLatLon0.09_PT003H.grib2 2026-04-29 02:40 341K
20260429T00Z_MSC_RDPS_WindU_IsbL-0050_RLatLon0.09_PT003H.grib2 2026-04-29 02:40 366K
20260429T00Z_MSC_RDPS_WindU_IsbL-0100_RLatLon0.09_PT003H.grib2 2026-04-29 02:40 335K
20260429T00Z_MSC_RDPS_WindU_IsbL-0150_RLatLon0.09_PT003H.grib2 2026-04-29 02:40 403K
20260429T00Z_MSC_RDPS_WindU_IsbL-0175_RLatLon0.09_PT003H.grib2 2026-04-29 02:40 427K
20260429T00Z_MSC_RDPS_WindU_IsbL-0200_RLatLon0.09_PT003H.grib2 2026-04-29 02:40 344K
20260429T00Z_MSC_RDPS_WindU_IsbL-0225_RLatLon0.09_PT003H.grib2 2026-04-29 02:40 349K
20260429T00Z_MSC_RDPS_WindU_IsbL-0250_RLatLon0.09_PT003H.grib2 2026-04-29 02:40 351K
20260429T00Z_MSC_RDPS_WindU_IsbL-0275_RLatLon0.09_PT003H.grib2 2026-04-29 02:40 367K
20260429T00Z_MSC_RDPS_WindU_IsbL-0300_RLatLon0.09_PT003H.grib2 2026-04-29 02:40 363K
20260429T00Z_MSC_RDPS_WindU_IsbL-0350_RLatLon0.09_PT003H.grib2 2026-04-29 02:40 474K
20260429T00Z_MSC_RDPS_WindU_IsbL-0400_RLatLon0.09_PT003H.grib2 2026-04-29 02:40 472K
20260429T00Z_MSC_RDPS_WindU_IsbL-0450_RLatLon0.09_PT003H.grib2 2026-04-29 02:40 472K
20260429T00Z_MSC_RDPS_WindU_IsbL-0500_RLatLon0.09_PT003H.grib2 2026-04-29 02:40 471K
20260429T00Z_MSC_RDPS_WindU_IsbL-0550_RLatLon0.09_PT003H.grib2 2026-04-29 02:40 453K
20260429T00Z_MSC_RDPS_WindU_IsbL-0600_RLatLon0.09_PT003H.grib2 2026-04-29 02:40 462K
20260429T00Z_MSC_RDPS_WindU_IsbL-0650_RLatLon0.09_PT003H.grib2 2026-04-29 02:40 479K
20260429T00Z_MSC_RDPS_WindU_IsbL-0700_RLatLon0.09_PT003H.grib2 2026-04-29 02:40 499K
20260429T00Z_MSC_RDPS_WindU_IsbL-0750_RLatLon0.09_PT003H.grib2 2026-04-29 02:40 525K
20260429T00Z_MSC_RDPS_WindU_IsbL-0800_RLatLon0.09_PT003H.grib2 2026-04-29 02:40 577K
20260429T00Z_MSC_RDPS_WindU_IsbL-0850_RLatLon0.09_PT003H.grib2 2026-04-29 02:40 611K
20260429T00Z_MSC_RDPS_WindU_IsbL-0875_RLatLon0.09_PT003H.grib2 2026-04-29 02:40 626K
20260429T00Z_MSC_RDPS_WindU_IsbL-0900_RLatLon0.09_PT003H.grib2 2026-04-29 02:40 635K
20260429T00Z_MSC_RDPS_WindU_IsbL-0925_RLatLon0.09_PT003H.grib2 2026-04-29 02:40 643K
20260429T00Z_MSC_RDPS_WindU_IsbL-0950_RLatLon0.09_PT003H.grib2 2026-04-29 02:40 640K
20260429T00Z_MSC_RDPS_WindU_IsbL-0970_RLatLon0.09_PT003H.grib2 2026-04-29 02:40 640K
20260429T00Z_MSC_RDPS_WindU_IsbL-0985_RLatLon0.09_PT003H.grib2 2026-04-29 02:40 636K
20260429T00Z_MSC_RDPS_WindU_IsbL-1000_RLatLon0.09_PT003H.grib2 2026-04-29 02:40 630K
20260429T00Z_MSC_RDPS_WindU_IsbL-1015_RLatLon0.09_PT003H.grib2 2026-04-29 02:40 758K
20260429T00Z_MSC_RDPS_WindV_AGL-10m_RLatLon0.09_PT003H.grib2 2026-04-29 02:40 423K
20260429T00Z_MSC_RDPS_WindV_AGL-120m_RLatLon0.09_PT003H.grib2 2026-04-29 02:40 410K
20260429T00Z_MSC_RDPS_WindV_AGL-40m_RLatLon0.09_PT003H.grib2 2026-04-29 02:40 527K
20260429T00Z_MSC_RDPS_WindV_AGL-80m_RLatLon0.09_PT003H.grib2 2026-04-29 02:40 525K
20260429T00Z_MSC_RDPS_WindV_IsbL-0001_RLatLon0.09_PT003H.grib2 2026-04-29 02:40 241K
20260429T00Z_MSC_RDPS_WindV_IsbL-0005_RLatLon0.09_PT003H.grib2 2026-04-29 02:40 280K
20260429T00Z_MSC_RDPS_WindV_IsbL-0010_RLatLon0.09_PT003H.grib2 2026-04-29 02:40 289K
20260429T00Z_MSC_RDPS_WindV_IsbL-0020_RLatLon0.09_PT003H.grib2 2026-04-29 02:40 304K
20260429T00Z_MSC_RDPS_WindV_IsbL-0030_RLatLon0.09_PT003H.grib2 2026-04-29 02:40 303K
20260429T00Z_MSC_RDPS_WindV_IsbL-0050_RLatLon0.09_PT003H.grib2 2026-04-29 02:40 330K
20260429T00Z_MSC_RDPS_WindV_IsbL-0100_RLatLon0.09_PT003H.grib2 2026-04-29 02:40 423K
20260429T00Z_MSC_RDPS_WindV_IsbL-0150_RLatLon0.09_PT003H.grib2 2026-04-29 02:40 400K
20260429T00Z_MSC_RDPS_WindV_IsbL-0175_RLatLon0.09_PT003H.grib2 2026-04-29 02:40 331K
20260429T00Z_MSC_RDPS_WindV_IsbL-0200_RLatLon0.09_PT003H.grib2 2026-04-29 02:40 345K
20260429T00Z_MSC_RDPS_WindV_IsbL-0225_RLatLon0.09_PT003H.grib2 2026-04-29 02:40 348K
20260429T00Z_MSC_RDPS_WindV_IsbL-0250_RLatLon0.09_PT003H.grib2 2026-04-29 02:40 375K
20260429T00Z_MSC_RDPS_WindV_IsbL-0275_RLatLon0.09_PT003H.grib2 2026-04-29 02:40 389K
20260429T00Z_MSC_RDPS_WindV_IsbL-0300_RLatLon0.09_PT003H.grib2 2026-04-29 02:40 386K
20260429T00Z_MSC_RDPS_WindV_IsbL-0350_RLatLon0.09_PT003H.grib2 2026-04-29 02:40 369K
20260429T00Z_MSC_RDPS_WindV_IsbL-0400_RLatLon0.09_PT003H.grib2 2026-04-29 02:40 369K
20260429T00Z_MSC_RDPS_WindV_IsbL-0450_RLatLon0.09_PT003H.grib2 2026-04-29 02:40 369K
20260429T00Z_MSC_RDPS_WindV_IsbL-0500_RLatLon0.09_PT003H.grib2 2026-04-29 02:40 470K
20260429T00Z_MSC_RDPS_WindV_IsbL-0550_RLatLon0.09_PT003H.grib2 2026-04-29 02:40 469K
20260429T00Z_MSC_RDPS_WindV_IsbL-0600_RLatLon0.09_PT003H.grib2 2026-04-29 02:40 477K
20260429T00Z_MSC_RDPS_WindV_IsbL-0650_RLatLon0.09_PT003H.grib2 2026-04-29 02:40 494K
20260429T00Z_MSC_RDPS_WindV_IsbL-0700_RLatLon0.09_PT003H.grib2 2026-04-29 02:40 512K
20260429T00Z_MSC_RDPS_WindV_IsbL-0750_RLatLon0.09_PT003H.grib2 2026-04-29 02:40 536K
20260429T00Z_MSC_RDPS_WindV_IsbL-0800_RLatLon0.09_PT003H.grib2 2026-04-29 02:40 572K
20260429T00Z_MSC_RDPS_WindV_IsbL-0850_RLatLon0.09_PT003H.grib2 2026-04-29 02:40 616K
20260429T00Z_MSC_RDPS_WindV_IsbL-0875_RLatLon0.09_PT003H.grib2 2026-04-29 02:40 631K
20260429T00Z_MSC_RDPS_WindV_IsbL-0900_RLatLon0.09_PT003H.grib2 2026-04-29 02:40 641K
20260429T00Z_MSC_RDPS_WindV_IsbL-0925_RLatLon0.09_PT003H.grib2 2026-04-29 02:40 641K
20260429T00Z_MSC_RDPS_WindV_IsbL-0950_RLatLon0.09_PT003H.grib2 2026-04-29 02:40 642K
20260429T00Z_MSC_RDPS_WindV_IsbL-0970_RLatLon0.09_PT003H.grib2 2026-04-29 02:40 644K
20260429T00Z_MSC_RDPS_WindV_IsbL-0985_RLatLon0.09_PT003H.grib2 2026-04-29 02:40 776K
20260429T00Z_MSC_RDPS_WindV_IsbL-1000_RLatLon0.09_PT003H.grib2 2026-04-29 02:40 768K
20260429T00Z_MSC_RDPS_WindV_IsbL-1015_RLatLon0.09_PT003H.grib2 2026-04-29 02:40 761K